SCP
-0 -0 -0 -0 0 -0 -0 -0 -0 -0 0 0 0 0 0 0 0 0 -0 -0 -0 0 0 0 0 -0 -0 0 0 0 0 0 -0 -0 0 0 0 0 0 0 0 0 0 0 0 0 0
-0 -0 -0 0 0 -0 -0 -0 -0 -0 0 0 0 0 0 -0 -0 -0 -0 -0 0 0 0 0 -0 -0 0 0 0 0 -0 -0 -0 0 0 0 0 0 0 0 0 0 0 0 0 0 0
-0 -0 -0 0 -0 -0 -0 -0 -0 -0 -0 0 0 0 0 0 -0 -0 0 0 0 0 0 0 0 0 0 0 0 0 0 0 0 0 0 0 0 0 0 0 0 0 0 0 0 0 0
-0 -0 -0 0 -0 -0 -0 -0 -0 -0 0 0 0 0 0 -0 -0 0 0 0 0 0 0 0 0 0 0 0 0 -0 0 0 0 0 0 0 0 0 0 0 0 0 0 0 0 0 -0
-0 -0 -0 0 0 0 -0 -0 -0 -0 0 0 0 0 0 0 -0 0 0 0 0 0 0 0 0 0 0 0 0 0 0 0 0 0 0 0 0 0 0 0 0 0 0 0 0 -0 0
-0 -0 0 0 0 0 -0 -0 -0 0 0 0 0 0 0 0 0 0 0 0 0 0 0 0 0 0 0 0 0 -0 0 0 0 0 0 0 0 0 0 0 0 -0 0 0 0 0 -0
-0 -0 0 0 0 0 0 0 0 0 0 0 0 0 0 0 0 0 0 0 0 0 0 0 0 0 0 0 0 -0 0 0 0 0 0 0 0 0 0 0 0 -0 -0 0 0 0 0
-0 -0 -0 -0 -0 0 0 0 0 0 0 0 0 0 0 0 0 0 0 0 0 0 0 0 0 0 0 0 0 0 0 0 0 0 0 0 0 0 0 -0 -0 -0 -0 -0 -0 0 0
-0 0 0 0 0 0 0 0 0 0 0 0 0 0 0 0 0 0 0 0 0 0 0 0 0 0 0 0 0 0 0 0 0 0 0 0 -0 -0 0 0 0 0 0 -0 -0 0 0
0 0 0 0 0 0 0 0 0 0 0 0 0 0 0 0 0 0 0 0 0 0 0 0 0 0 0 0 0 0 0 0 0 0 0 0 0 0 0 -0 0 0 0 0 0 0 0
0 0 0 0 0 0 0 0 0 0 0 0 0 0 0 0 0 0 0 0 0 0 0 0 0 0 0 0 0 0 0 0 0 0 0 0 0 0 0 0 0 -0 0 0 0 0 0
0 0 0 0 0 0 0 0 0 0 0 0 0 0 0 0 0 0 0 0 0 -0 0 0 0 0 0 0 0 0 -0 0 0 0 0 0 0 0 0 -0 0 0 0 0 0 0 0
0 0 0 0 0 0 0 0 0 0 0 0 0 0 0 0 0 0 0 0 -0 0 0 0 0 0 0 0 -0 -0 -0 0 0 0 0 0 0 0 0 0 0 0 0 0 0 0 0
0 0 0 0 0 0 0 0 0 0 0 0 0 0 0 0 0 0 0 0 0 0 0 0 0 0 0 0 0 0 0 0 0 0 0 0 0 0 0 0 0 0 0 0 0 0 0
0 0 0 0 0 0 0 0 0 0 0 0 -0 0 0 0 0 0 0 0 0 0 0 0 0 0 0 0 -0 0 0 0 0 0 0 0 0 0 0 0 0 0 0 0 0 0 0
0 0 0 0 0 0 0 0 0 0 0 0 0 0 0 0 0 0 0 0 0 0 0 0 0 0 0 0 0 0 0 0 0 0 0 0 0 0 0 0 0 0 0 0 0 0 0
0 0 0 0 0 0 0 0 0 0 0 0 0 0 0 0 0 0 0 0 0 0 0 0 0 0 0 0 0 0 0 0 0 0 0 0 0 0 0 0 0 0 0 0 0 0 0
0 0 0 0 0 0 0 0 0 0 0 0 0 0 0 0 0 0 0 0 0 0 0 0 0 0 0 0 0 0 0 0 0 0 0 0 0 0 -0 0 -0 0 0 0 0 -0 -0
0 0 0 0 0 0 0 0 0 0 0 0 0 0 0 0 0 0 0 0 0 0 0 0 0 0 0 0 0 0 0 0 0 0 0 0 0 0 0 0 0 0 0 -0 -0 -0 -0
0 0 0 0 0 0 0 0 0 0 0 0 -0 0 0 0 0 0 0 0 0 0 0 0 0 0 0 0 0 0 0 0 0 0 0 0 0 0 0 -0 -0 -0 0 -0 -0 -0 -0
0 0 0 0 0 0 0 0 0 0 0 0 0 0 0 0 0 0 0 0 0 0 0 0 0 0 0 0 0 0 0 0 0 0 0 0 0 0 -0 -0 0 -0 0 0 -0 -0 -0
0 0 0 0 0 0 0 0 0 0 -0 0 0 0 0 0 0 0 0 0 0 0 0 0 0 0 0 0 0 0 0 0 0 0 0 0 0 0 0 0 0 -0 -0 -0 -0 -0 0
0 0 0 0 0 0 0 0 0 0 -0 0 0 0 0 0 0 0 0 0 0 0 0 0 0 0 0 0 -0 0 0 0 0 0 0 -0 0 0 0 0 0 0 0 0 0 0 -0
0 0 0 0 0 0 0 0 0 0 0 0 0 0 0 0 0 0 0 0 0 0 0 0 0 0 0 0 0 0 0 0 0 0 0 -0 0 0 0 0 -0 -0 0 -0 -0 -0 0
0 0 0 0 0 0 0 0 0 0 0 0 0 0 0 0 0 0 0 0 0 0 0 0 0 0 0 -0 -0 0 0 0 0 0 -0 0 0 0 0 0 0 0 -0 -0 0 0 0
0 0 0 0 0 0 0 0 0 0 0 0 0 0 0 0 0 0 0 0 0 0 0 0 0 0 0 0 -0 -0 0 0 0 -0 -0 0 0 0 0 0 -0 -0 0 -0 0 0 0
0 0 0 0 0 0 0 0 0 0 0 0 0 0 0 0 0 0 0 0 0 0 0 0 0 0 0 0 -0 -0 0 0 0 0 0 0 -0 0 -0 0 0 0 -0 -0 0 0 0
0 0 0 0 0 0 0 0 0 0 0 0 0 0 0 0 0 0 0 0 0 0 0 0 0 0 0 0 -0 -0 0 0 0 0 0 0 -0 -0 -0 0 -0 0 -0 0 0 0 0
0 0 0 0 0 0 0 0 0 0 0 0 0 0 0 0 0 0 0 -0 0 0 0 0 0 0 0 0 -0 -0 -0 0 0 0 0 -0 -0 -0 -0 0 0 0 0 0 0 0 0
Wind_Speed_500mb
52 52 50 50 49 48 47 47 46 47 50 54 58 58 52 39 31 29 29 30 28 27 30 26 25 21 13 2 6 3 8 8 7 6 7 11 16 16 22 11 17 32 38 50 40 51 46
54 54 53 52 52 51 51 51 51 52 55 59 60 55 44 35 30 27 30 33 31 31 28 23 23 16 5 4 1 2 1 3 5 6 4 3 6 10 20 22 23 21 21 28 37 47 59
55 55 55 55 55 55 55 55 55 58 60 62 59 46 41 35 29 29 32 35 35 29 17 22 21 5 0 8 7 12 11 8 10 14 14 12 11 16 6 19 20 27 32 32 38 46 45
57 57 58 60 60 59 59 60 61 63 64 63 58 42 39 32 28 30 32 37 36 22 20 30 8 3 4 3 13 20 15 20 21 18 22 18 18 24 26 24 28 32 32 32 27 15 42
56 57 59 62 63 64 64 64 66 67 67 64 59 41 34 27 27 30 34 41 37 23 17 25 4 5 7 5 12 20 11 15 17 16 18 17 19 32 27 25 28 27 28 29 27 18 21
56 58 59 61 64 67 68 69 70 69 69 66 59 43 29 27 24 29 33 38 37 22 16 11 3 9 9 13 19 26 18 17 15 18 20 23 23 25 27 26 30 31 24 25 26 26 28
56 58 61 62 65 68 70 72 73 71 71 67 61 50 23 26 26 26 34 27 25 7 21 24 25 23 18 19 26 40 23 13 13 18 28 34 26 33 39 37 39 39 41 41 36 23 26
56 58 61 63 66 68 72 75 77 74 73 68 61 52 19 24 26 22 28 18 15 17 21 17 11 20 18 13 47 33 7 15 15 28 26 21 37 42 40 43 42 43 46 49 41 33 30
55 58 60 62 62 69 75 78 81 78 77 70 62 46 18 22 22 23 21 13 21 13 14 5 12 16 10 32 54 29 11 22 30 34 32 37 40 37 30 32 38 43 46 46 44 37 37
55 59 61 62 63 70 76 79 82 84 78 71 61 38 15 23 13 27 12 32 21 9 8 11 1 2 14 46 15 14 33 21 26 30 31 31 34 30 39 46 42 41 37 39 36 26 35
55 58 59 62 64 71 76 79 83 87 81 71 60 27 16 19 19 19 30 34 11 7 7 23 5 12 40 23 33 13 5 22 33 37 24 32 31 32 33 31 25 35 32 36 32 34 36
55 57 58 61 66 74 77 82 86 88 84 73 55 20 18 24 23 33 38 25 1 11 10 17 12 34 41 39 21 25 38 30 34 34 37 51 50 35 44 31 30 27 23 21 25 23 28
55 55 55 59 66 73 78 83 87 89 85 73 46 12 17 26 25 34 36 7 10 10 24 17 32 42 40 30 34 27 35 29 14 10 21 30 39 42 37 36 29 15 11 11 15 16 36
57 56 53 57 65 70 77 83 87 90 87 74 42 10 19 31 33 30 16 11 7 15 18 29 31 37 20 32 30 35 33 30 22 17 20 15 11 14 25 37 19 34 36 20 14 29 33
60 59 54 57 63 69 76 81 88 91 89 78 37 8 11 31 32 24 17 8 10 18 24 25 36 22 35 44 34 25 33 30 8 8 9 11 14 7 19 29 19 5 20 31 7 22 19
59 63 59 58 63 69 75 77 87 90 90 81 34 5 17 33 20 12 9 4 7 9 22 19 16 17 42 47 30 36 23 17 12 14 8 4 18 27 26 10 15 19 11 9 12 14 30
53 59 62 62 63 70 71 75 83 91 90 79 30 6 19 35 14 8 8 9 12 15 21 10 23 32 34 35 31 16 16 27 19 17 18 6 13 14 9 18 24 10 7 17 20 21 12
51 53 56 60 63 67 68 74 79 87 90 82 24 7 30 34 6 6 10 13 12 17 13 17 18 22 23 32 12 14 18 16 33 22 13 15 8 12 35 24 31 24 26 31 14 25 23
52 53 55 59 63 65 67 72 77 78 82 70 29 12 20 22 10 13 16 10 10 19 19 10 13 13 34 16 16 18 31 22 34 18 8 4 8 10 10 15 19 13 24 30 33 22 26
51 52 54 57 63 64 66 67 71 70 74 53 19 10 10 15 7 14 18 11 17 20 26 17 28 28 25 40 27 21 42 18 55 44 38 14 9 16 21 37 6 12 14 27 28 19 21
51 49 52 54 59 61 64 66 70 68 66 42 19 9 5 12 8 23 16 11 26 23 11 21 14 28 41 16 41 17 50 48 26 9 10 5 10 15 31 41 22 20 20 14 31 31 15
54 52 52 54 56 58 59 62 65 59 58 22 21 16 13 31 19 24 4 17 22 26 14 20 24 46 41 35 28 51 49 35 7 12 9 5 8 23 29 15 6 9 12 14 23 25 26
58 55 53 53 55 55 54 55 62 61 53 17 18 15 11 18 14 14 14 19 25 33 24 31 37 40 42 44 72 72 47 27 12 9 10 7 9 11 10 15 3 11 14 18 11 15 8
56 58 57 54 54 54 50 53 63 56 43 31 16 13 11 14 18 17 26 36 35 34 34 52 46 32 50 76 67 27 13 11 12 12 7 15 17 11 12 18 4 8 19 13 15 12 20
56 56 57 56 54 52 49 50 59 54 36 23 18 7 9 11 27 24 23 32 35 38 27 34 34 45 52 52 21 14 5 6 3 10 15 17 9 11 11 17 4 4 16 15 13 6 27
56 59 56 56 53 52 49 49 54 48 43 26 21 10 7 18 6 17 23 29 21 24 24 27 41 36 34 17 17 12 8 14 10 30 16 20 13 9 13 10 12 10 40 51 8 6 35
62 57 55 52 52 51 51 46 49 46 46 30 13 13 7 18 17 14 16 18 17 18 14 33 42 18 23 17 15 12 8 15 11 19 20 17 13 15 17 7 4 21 51 52 5 11 51
60 58 55 48 51 51 50 47 51 48 45 35 21 19 12 17 42 29 23 30 27 25 13 34 22 15 7 13 10 11 8 11 9 5 13 9 13 9 10 9 8 59 33 15 21 37 29
52 54 54 48 51 48 50 50 51 50 44 41 21 21 15 28 36 51 51 51 47 40 33 12 12 17 6 6 8 8 8 7 14 8 4 5 8 10 8 8 21 47 36 55 26 5 15
Wind_Direction_500mb
38 36 34 32 29 27 24 20 17 12 6 1 356 352 351 355 359 7 11 7 357 352 340 339 342 343 357 284 48 5 27 26 350 272 271 273 266 266 259 279 279 251 256 264 246 256 258
37 35 33 31 28 24 20 19 16 11 7 2 359 1 9 13 9 13 10 1 351 345 342 346 346 347 47 125 6 62 348 325 268 225 243 242 286 281 282 266 261 292 282 278 268 259 254
36 34 33 30 27 23 20 18 15 10 7 4 2 7 10 10 15 11 6 360 355 347 1 349 350 38 158 49 337 328 303 259 259 230 247 252 261 255 294 261 266 272 271 264 249 246 247
34 33 32 30 27 24 20 17 13 9 5 4 2 1 6 12 14 6 4 359 353 342 2 343 0 106 252 94 41 356 296 287 276 253 241 257 263 258 265 274 267 256 258 267 257 260 240
33 32 30 29 26 23 20 16 13 8 4 1 0 355 0 4 6 3 0 355 344 336 332 352 65 253 222 272 337 337 305 289 265 248 239 241 245 245 246 252 262 234 259 251 253 218 250
30 29 27 25 22 19 16 13 9 5 2 358 356 352 349 356 350 356 354 351 346 342 332 352 293 251 221 306 307 319 310 278 270 244 235 231 232 239 233 246 252 267 237 242 253 262 224
28 26 24 21 18 15 13 11 6 2 359 355 350 350 332 347 342 343 351 349 340 289 314 283 297 283 305 308 317 314 298 247 255 244 253 233 239 241 250 255 254 272 275 269 269 267 263
25 23 19 16 12 11 10 7 5 1 356 353 349 347 321 337 345 343 346 351 340 310 306 314 269 271 274 303 314 330 263 228 241 276 283 251 243 251 262 267 264 262 261 262 265 260 260
22 19 16 14 13 10 7 5 3 0 355 354 348 350 336 337 346 344 336 325 330 324 279 310 277 277 284 317 314 289 299 275 281 273 267 263 268 291 262 255 254 251 252 263 270 273 254
17 14 13 13 11 8 5 3 2 359 358 354 349 353 360 349 12 346 337 328 319 302 271 29 263 250 301 326 295 236 305 294 282 271 293 283 279 274 272 253 252 255 258 266 269 263 255
12 12 11 10 10 7 4 2 1 359 358 355 350 354 0 1 348 347 328 335 332 158 294 346 346 306 324 315 316 20 265 300 282 290 283 251 270 278 267 256 268 270 290 276 263 247 261
9 7 8 8 7 5 4 3 2 0 358 357 353 353 356 1 357 344 340 341 347 233 16 343 312 327 324 330 321 283 290 292 277 288 269 266 274 267 255 268 264 270 290 255 225 238 241
5 7 8 7 6 6 4 2 2 1 357 359 355 352 4 360 342 340 338 342 269 17 345 342 326 328 322 332 323 326 318 306 267 268 281 308 265 225 239 249 252 197 188 211 197 202 237
360 4 4 4 3 1 1 360 359 2 358 358 355 303 337 352 347 344 347 283 336 4 343 326 327 314 328 338 337 316 314 312 314 259 281 287 305 194 210 229 229 214 212 229 226 217 245
356 359 0 359 0 360 359 359 358 1 1 356 359 349 358 349 346 349 315 24 350 345 336 322 318 331 339 333 332 336 306 302 277 256 237 299 254 1 279 246 262 151 216 242 292 282 289
350 353 356 360 359 358 358 359 358 0 3 357 5 25 348 352 359 359 351 284 309 314 317 312 317 330 330 333 329 332 308 301 289 320 339 272 281 267 276 278 231 216 347 193 202 247 245
345 350 351 354 353 353 354 357 358 358 1 1 9 309 339 353 20 330 28 348 315 329 330 306 303 306 324 331 318 302 267 294 313 312 306 251 220 275 263 212 217 175 213 229 268 248 259
341 341 346 348 346 347 351 356 358 356 358 3 1 312 340 3 334 1 357 331 321 300 311 288 286 293 319 323 280 280 256 285 309 326 278 264 276 259 263 255 257 234 222 226 233 228 239
336 337 337 339 340 345 351 352 355 355 356 355 338 303 338 8 17 349 339 297 267 308 325 299 288 298 311 303 299 251 292 282 319 316 261 181 232 280 251 215 224 239 226 232 236 259 267
331 333 334 335 337 342 346 351 354 356 355 353 343 329 354 30 53 340 339 313 324 318 301 273 286 299 290 312 301 283 289 302 318 305 291 213 246 242 271 303 343 244 227 221 230 253 262
328 330 331 333 334 339 342 346 351 350 355 8 358 23 345 315 336 332 307 289 321 339 281 303 287 310 333 306 302 278 314 314 316 317 305 234 263 245 253 273 268 242 263 194 239 242 251
329 328 330 331 332 333 338 341 347 348 352 14 350 342 311 292 297 308 84 322 312 328 308 299 303 322 321 304 305 315 313 312 289 313 302 272 276 303 292 285 208 224 198 210 236 261 261
325 329 327 328 328 329 332 336 338 344 352 15 342 325 321 305 317 304 352 321 307 314 295 281 299 317 311 313 319 304 291 286 245 281 317 289 304 302 295 331 301 122 10 308 327 298 281
321 324 326 325 324 325 331 331 333 337 343 347 346 340 302 300 310 318 309 309 306 308 288 295 308 316 317 319 312 285 233 216 210 192 351 309 312 280 288 305 316 105 42 344 317 289 307
312 313 316 321 321 320 320 326 328 332 333 339 336 357 303 286 303 292 317 309 309 310 297 300 316 324 325 319 325 331 308 50 334 318 332 317 295 300 319 331 331 25 22 341 330 298 351
305 305 308 313 316 316 317 320 330 332 326 320 323 309 281 305 324 312 307 302 302 315 310 325 332 330 337 314 360 337 347 336 336 327 352 320 270 248 330 322 352 15 329 328 185 356 347
295 295 297 303 307 311 312 314 316 316 317 313 300 308 254 269 288 295 282 313 300 299 290 302 341 333 1 330 349 350 324 1 344 327 339 339 356 351 341 333 97 3 329 318 343 332 317
294 291 292 293 296 301 308 308 310 306 310 301 293 296 244 270 289 265 265 273 280 267 283 321 327 14 312 347 348 354 310 356 302 282 335 325 332 360 328 335 350 355 346 4 306 299 322
297 293 288 284 284 294 295 300 301 306 305 298 291 293 259 252 271 286 277 263 252 255 284 303 283 322 320 314 358 305 307 313 317 323 345 340 10 313 334 336 337 325 313 315 344 81 41
Wind_Speed_850mb
52 52 50 50 49 48 47 47 46 47 50 54 58 58 52 39 31 29 29 30 28 27 30 26 25 21 13 2 6 3 8 8 7 6 7 11 16 16 22 11 17 32 38 50 40 51 46
54 54 53 52 52 51 51 51 51 52 55 59 60 55 44 35 30 27 30 33 31 31 28 23 23 16 5 4 1 2 1 3 5 6 4 3 6 10 20 22 23 21 21 28 37 47 59
55 55 55 55 55 55 55 55 55 58 60 62 59 46 41 35 29 29 32 35 35 29 17 22 21 5 0 8 7 12 11 8 10 14 14 12 11 16 6 19 20 27 32 32 38 46 45
57 57 58 60 60 59 59 60 61 63 64 63 58 42 39 32 28 30 32 37 36 22 20 30 8 3 4 3 13 20 15 20 21 18 22 18 18 24 26 24 28 32 32 32 27 15 42
56 57 59 62 63 64 64 64 66 67 67 64 59 41 34 27 27 30 34 41 37 23 17 25 4 5 7 5 12 20 11 15 17 16 18 17 19 32 27 25 28 27 28 29 27 18 21
56 58 59 61 64 67 68 69 70 69 69 66 59 43 29 27 24 29 33 38 37 22 16 11 3 9 9 13 19 26 18 17 15 18 20 23 23 25 27 26 30 31 24 25 26 26 28
56 58 61 62 65 68 70 72 73 71 71 67 61 50 23 26 26 26 34 27 25 7 21 24 25 23 18 19 26 40 23 13 13 18 28 34 26 33 39 37 39 39 41 41 36 23 26
56 58 61 63 66 68 72 75 77 74 73 68 61 52 19 24 26 22 28 18 15 17 21 17 11 20 18 13 47 33 7 15 15 28 26 21 37 42 40 43 42 43 46 49 41 33 30
55 58 60 62 62 69 75 78 81 78 77 70 62 46 18 22 22 23 21 13 21 13 14 5 12 16 10 32 54 29 11 22 30 34 32 37 40 37 30 32 38 43 46 46 44 37 37
55 59 61 62 63 70 76 79 82 84 78 71 61 38 15 23 13 27 12 32 21 9 8 11 1 2 14 46 15 14 33 21 26 30 31 31 34 30 39 46 42 41 37 39 36 26 35
55 58 59 62 64 71 76 79 83 87 81 71 60 27 16 19 19 19 30 34 11 7 7 23 5 12 40 23 33 13 5 22 33 37 24 32 31 32 33 31 25 35 32 36 32 34 36
55 57 58 61 66 74 77 82 86 88 84 73 55 20 18 24 23 33 38 25 1 11 10 17 12 34 41 39 21 25 38 30 34 34 37 51 50 35 44 31 30 27 23 21 25 23 28
55 55 55 59 66 73 78 83 87 89 85 73 46 12 17 26 25 34 36 7 10 10 24 17 32 42 40 30 34 27 35 29 14 10 21 30 39 42 37 36 29 15 11 11 15 16 36
57 56 53 57 65 70 77 83 87 90 87 74 42 10 19 31 33 30 16 11 7 15 18 29 31 37 20 32 30 35 33 30 22 17 20 15 11 14 25 37 19 34 36 20 14 29 33
60 59 54 57 63 69 76 81 88 91 89 78 37 8 11 31 32 24 17 8 10 18 24 25 36 22 35 44 34 25 33 30 8 8 9 11 14 7 19 29 19 5 20 31 7 22 19
59 63 59 58 63 69 75 77 87 90 90 81 34 5 17 33 20 12 9 4 7 9 22 19 16 17 42 47 30 36 23 17 12 14 8 4 18 27 26 10 15 19 11 9 12 14 30
53 59 62 62 63 70 71 75 83 91 90 79 30 6 19 35 14 8 8 9 12 15 21 10 23 32 34 35 31 16 16 27 19 17 18 6 13 14 9 18 24 10 7 17 20 21 12
51 53 56 60 63 67 68 74 79 87 90 82 24 7 30 34 6 6 10 13 12 17 13 17 18 22 23 32 12 14 18 16 33 22 13 15 8 12 35 24 31 24 26 31 14 25 23
52 53 55 59 63 65 67 72 77 78 82 70 29 12 20 22 10 13 16 10 10 19 19 10 13 13 34 16 16 18 31 22 34 18 8 4 8 10 10 15 19 13 24 30 33 22 26
51 52 54 57 63 64 66 67 71 70 74 53 19 10 10 15 7 14 18 11 17 20 26 17 28 28 25 40 27 21 42 18 55 44 38 14 9 16 21 37 6 12 14 27 28 19 21
51 49 52 54 59 61 64 66 70 68 66 42 19 9 5 12 8 23 16 11 26 23 11 21 14 28 41 16 41 17 50 48 26 9 10 5 10 15 31 41 22 20 20 14 31 31 15
54 52 52 54 56 58 59 62 65 59 58 22 21 16 13 31 19 24 4 17 22 26 14 20 24 46 41 35 28 51 49 35 7 12 9 5 8 23 29 15 6 9 12 14 23 25 26
58 55 53 53 55 55 54 55 62 61 53 17 18 15 11 18 14 14 14 19 25 33 24 31 37 40 42 44 72 72 47 27 12 9 10 7 9 11 10 15 3 11 14 18 11 15 8
56 58 57 54 54 54 50 53 63 56 43 31 16 13 11 14 18 17 26 36 35 34 34 52 46 32 50 76 67 27 13 11 12 12 7 15 17 11 12 18 4 8 19 13 15 12 20
56 56 57 56 54 52 49 50 59 54 36 23 18 7 9 11 27 24 23 32 35 38 27 34 34 45 52 52 21 14 5 6 3 10 15 17 9 11 11 17 4 4 16 15 13 6 27
56 59 56 56 53 52 49 49 54 48 43 26 21 10 7 18 6 17 23 29 21 24 24 27 41 36 34 17 17 12 8 14 10 30 16 20 13 9 13 10 12 10 40 51 8 6 35
62 57 55 52 52 51 51 46 49 46 46 30 13 13 7 18 17 14 16 18 17 18 14 33 42 18 23 17 15 12 8 15 11 19 20 17 13 15 17 7 4 21 51 52 5 11 51
60 58 55 48 51 51 50 47 51 48 45 35 21 19 12 17 42 29 23 30 27 25 13 34 22 15 7 13 10 11 8 11 9 5 13 9 13 9 10 9 8 59 33 15 21 37 29
52 54 54 48 51 48 50 50 51 50 44 41 21 21 15 28 36 51 51 51 47 40 33 12 12 17 6 6 8 8 8 7 14 8 4 5 8 10 8 8 21 47 36 55 26 5 15
Wind_Direction_850mb
38 36 34 32 29 27 24 20 17 12 6 1 356 352 351 355 359 7 11 7 357 352 340 339 342 343 357 284 48 5 27 26 350 272 271 273 266 266 259 279 279 251 256 264 246 256 258
37 35 33 31 28 24 20 19 16 11 7 2 359 1 9 13 9 13 10 1 351 345 342 346 346 347 47 125 6 62 348 325 268 225 243 242 286 281 282 266 261 292 282 278 268 259 254
36 34 33 30 27 23 20 18 15 10 7 4 2 7 10 10 15 11 6 360 355 347 1 349 350 38 158 49 337 328 303 259 259 230 247 252 261 255 294 261 266 272 271 264 249 246 247
34 33 32 30 27 24 20 17 13 9 5 4 2 1 6 12 14 6 4 359 353 342 2 343 0 106 252 94 41 356 296 287 276 253 241 257 263 258 265 274 267 256 258 267 257 260 240
33 32 30 29 26 23 20 16 13 8 4 1 0 355 0 4 6 3 0 355 344 336 332 352 65 253 222 272 337 337 305 289 265 248 239 241 245 245 246 252 262 234 259 251 253 218 250
30 29 27 25 22 19 16 13 9 5 2 358 356 352 349 356 350 356 354 351 346 342 332 352 293 251 221 306 307 319 310 278 270 244 235 231 232 239 233 246 252 267 237 242 253 262 224
28 26 24 21 18 15 13 11 6 2 359 355 350 350 332 347 342 343 351 349 340 289 314 283 297 283 305 308 317 314 298 247 255 244 253 233 239 241 250 255 254 272 275 269 269 267 263
25 23 19 16 12 11 10 7 5 1 356 353 349 347 321 337 345 343 346 351 340 310 306 314 269 271 274 303 314 330 263 228 241 276 283 251 243 251 262 267 264 262 261 262 265 260 260
22 19 16 14 13 10 7 5 3 0 355 354 348 350 336 337 346 344 336 325 330 324 279 310 277 277 284 317 314 289 299 275 281 273 267 263 268 291 262 255 254 251 252 263 270 273 254
17 14 13 13 11 8 5 3 2 359 358 354 349 353 360 349 12 346 337 328 319 302 271 29 263 250 301 326 295 236 305 294 282 271 293 283 279 274 272 253 252 255 258 266 269 263 255
12 12 11 10 10 7 4 2 1 359 358 355 350 354 0 1 348 347 328 335 332 158 294 346 346 306 324 315 316 20 265 300 282 290 283 251 270 278 267 256 268 270 290 276 263 247 261
9 7 8 8 7 5 4 3 2 0 358 357 353 353 356 1 357 344 340 341 347 233 16 343 312 327 324 330 321 283 290 292 277 288 269 266 274 267 255 268 264 270 290 255 225 238 241
5 7 8 7 6 6 4 2 2 1 357 359 355 352 4 360 342 340 338 342 269 17 345 342 326 328 322 332 323 326 318 306 267 268 281 308 265 225 239 249 252 197 188 211 197 202 237
360 4 4 4 3 1 1 360 359 2 358 358 355 303 337 352 347 344 347 283 336 4 343 326 327 314 328 338 337 316 314 312 314 259 281 287 305 194 210 229 229 214 212 229 226 217 245
356 359 0 359 0 360 359 359 358 1 1 356 359 349 358 349 346 349 315 24 350 345 336 322 318 331 339 333 332 336 306 302 277 256 237 299 254 1 279 246 262 151 216 242 292 282 289
350 353 356 360 359 358 358 359 358 0 3 357 5 25 348 352 359 359 351 284 309 314 317 312 317 330 330 333 329 332 308 301 289 320 339 272 281 267 276 278 231 216 347 193 202 247 245
345 350 351 354 353 353 354 357 358 358 1 1 9 309 339 353 20 330 28 348 315 329 330 306 303 306 324 331 318 302 267 294 313 312 306 251 220 275 263 212 217 175 213 229 268 248 259
341 341 346 348 346 347 351 356 358 356 358 3 1 312 340 3 334 1 357 331 321 300 311 288 286 293 319 323 280 280 256 285 309 326 278 264 276 259 263 255 257 234 222 226 233 228 239
336 337 337 339 340 345 351 352 355 355 356 355 338 303 338 8 17 349 339 297 267 308 325 299 288 298 311 303 299 251 292 282 319 316 261 181 232 280 251 215 224 239 226 232 236 259 267
331 333 334 335 337 342 346 351 354 356 355 353 343 329 354 30 53 340 339 313 324 318 301 273 286 299 290 312 301 283 289 302 318 305 291 213 246 242 271 303 343 244 227 221 230 253 262
328 330 331 333 334 339 342 346 351 350 355 8 358 23 345 315 336 332 307 289 321 339 281 303 287 310 333 306 302 278 314 314 316 317 305 234 263 245 253 273 268 242 263 194 239 242 251
329 328 330 331 332 333 338 341 347 348 352 14 350 342 311 292 297 308 84 322 312 328 308 299 303 322 321 304 305 315 313 312 289 313 302 272 276 303 292 285 208 224 198 210 236 261 261
325 329 327 328 328 329 332 336 338 344 352 15 342 325 321 305 317 304 352 321 307 314 295 281 299 317 311 313 319 304 291 286 245 281 317 289 304 302 295 331 301 122 10 308 327 298 281
321 324 326 325 324 325 331 331 333 337 343 347 346 340 302 300 310 318 309 309 306 308 288 295 308 316 317 319 312 285 233 216 210 192 351 309 312 280 288 305 316 105 42 344 317 289 307
312 313 316 321 321 320 320 326 328 332 333 339 336 357 303 286 303 292 317 309 309 310 297 300 316 324 325 319 325 331 308 50 334 318 332 317 295 300 319 331 331 25 22 341 330 298 351
305 305 308 313 316 316 317 320 330 332 326 320 323 309 281 305 324 312 307 302 302 315 310 325 332 330 337 314 360 337 347 336 336 327 352 320 270 248 330 322 352 15 329 328 185 356 347
295 295 297 303 307 311 312 314 316 316 317 313 300 308 254 269 288 295 282 313 300 299 290 302 341 333 1 330 349 350 324 1 344 327 339 339 356 351 341 333 97 3 329 318 343 332 317
294 291 292 293 296 301 308 308 310 306 310 301 293 296 244 270 289 265 265 273 280 267 283 321 327 14 312 347 348 354 310 356 302 282 335 325 332 360 328 335 350 355 346 4 306 299 322
297 293 288 284 284 294 295 300 301 306 305 298 291 293 259 252 271 286 277 263 252 255 284 303 283 322 320 314 358 305 307 313 317 323 345 340 10 313 334 336 337 325 313 315 344 81 41